Flag for Australia Weather past 2 weeks in Traralgon, Victoria, Australia

Now
58 °F

Overcast.


Feels Like: 57 °F
Forecast: 51 / 55 °F
Wind: 6 mph from Northwest

Location: Latrobe Valley Airport

Current Time: Apr 25, 2015 at 12:56:25 PM

Latest Report: Apr 25, 2015 at 12:00 PM


Visibility: N/A

Pressure: 29.78 "Hg

Humidity: 96%

Dew point: 56 °F

Location of TraralgonLocation

Historic Weather in Traralgon — Graph

°F

Traralgon temperature yesterday

Maximum temperature yesterday: 67 °F (at 3:00 PM)
Minimum temperature yesterday: 54 °F (at 9:00 PM)
Average temperature yesterday: 60 °F

Past Weeks' High & Low Weather Summary

 TemperatureHumidityPressure
High76 °F (Apr 15, 3:00 PM)100% (Apr 10, 11:00 PM)30.63 "Hg (Apr 10, 11:00 PM)
Low33 °F (Apr 21, 5:00 AM)41% (Apr 20, 3:00 PM)29.59 "Hg (Apr 24, 3:00 PM)
Average56 °F87%30.15 "Hg
* Reported Apr 10 11:00 AM — Apr 25 11:00 AM, Traralgon, Weather by CustomWeather, © 2015

Note: Actual official high and low records may vary slightly from our data, if they occured in-between our weather recording intervals... More about our weather records

Advertising

Traralgon weather history for previous 24 hours

 ConditionsComfort  
Time TempWeatherWind HumidityBarometerVisibility
11:00 AM
Sat, Apr 25
56 °FCool.7 mph100%29.78 "HgN/A
9:00 AM56 °FOvercast.8 mph100%29.78 "HgN/A
8:00 AM53 °FCool.5 mph100%29.75 "HgN/A
6:00 AM49 °FOvercast.5 mph100%29.72 "Hg1 mi
5:00 AM53 °FCool.3 mph100%29.70 "HgN/A
3:00 AM54 °FOvercast.7 mph100%29.71 "HgN/A
2:00 AM55 °FCool.9 mph100%29.72 "HgN/A
12:00 AM53 °FPassing clouds.6 mph100%29.70 "Hg4 mi
11:00 PM
Fri, Apr 24
54 °FCool.5 mph100%29.70 "HgN/A
9:00 PM54 °FPassing clouds.5 mph100%29.69 "HgN/A
8:00 PM55 °FCool.6 mph99%29.67 "HgN/A
6:00 PM60 °FPassing clouds.8 mph88%29.63 "HgN/A
5:00 PM64 °FMild.9 mph79%29.60 "HgN/A
3:00 PM67 °FOvercast.8 mph77%29.59 "HgN/A
2:00 PM65 °FMild.9 mph81%29.60 "HgN/A
12:00 PM61 °FOvercast.5 mph100%29.65 "HgN/A
Weather by CustomWeather, © 2015

See weather overviewHow to use our weather pages